Wind_Speed
35 34 34 33 33 31 30 29 29 28 27 25 23 21 19 18 16 14 14 13 13 12 11 11 10 10 10 10 10 10 10 10 9 9 8 8 7 7 7 6 5 4 3
32 33 34 34 33 33 32 31 30 29 29 29 27 25 23 21 19 17 16 15 15 14 13 12 12 12 11 11 11 11 11 10 10 9 9 8 7 7 6 5 5 4 4
29 30 31 33 33 33 34 32 31 31 29 28 27 26 25 24 23 21 19 18 17 16 15 14 14 13 13 12 12 12 12 11 11 10 9 9 8 7 7 6 5 4 4
27 29 29 30 31 32 33 34 33 31 31 29 27 27 27 26 25 24 23 21 20 19 18 16 16 15 14 14 13 13 12 12 11 11 10 9 8 8 7 6 5 5 4
24 26 28 29 30 31 33 34 33 33 33 31 29 28 28 28 28 27 26 25 24 22 20 19 18 17 16 16 15 15 14 13 13 12 11 10 9 9 8 7 7 6 6
21 23 25 26 28 30 31 34 35 34 33 32 32 30 29 29 29 29 28 28 27 25 24 22 21 20 19 18 17 16 16 15 14 13 13 12 11 10 9 9 8 8 8
17 20 22 24 26 28 30 32 34 35 35 34 33 31 30 30 30 30 29 29 29 28 27 26 24 23 22 21 20 19 18 17 17 16 15 13 12 12 11 10 10 9 9
14 17 19 21 23 26 28 30 32 33 34 35 34 33 32 31 31 31 30 29 30 30 29 28 28 27 25 24 23 22 21 20 19 18 17 16 15 14 13 12 12 11 11
13 15 17 19 21 23 25 28 30 32 33 35 35 35 34 34 32 33 31 31 31 31 31 31 30 30 29 28 27 25 24 23 22 21 20 18 17 16 15 14 14 13 13
12 14 15 17 19 21 23 25 28 30 32 34 35 36 36 35 35 34 34 34 33 32 32 32 33 34 33 32 30 29 27 26 25 24 23 21 20 18 17 17 16 16 15
12 13 13 15 17 18 21 23 26 29 31 33 34 36 36 37 37 37 36 36 36 35 35 35 34 35 34 34 33 32 31 29 28 27 25 24 23 22 20 19 19 18 18
12 12 12 14 15 16 18 20 23 26 29 31 34 35 36 37 37 38 38 39 39 39 38 37 37 34 35 35 34 34 34 33 31 30 29 27 26 25 24 23 22 21 20
13 13 12 13 13 14 16 18 20 23 26 29 32 34 36 37 38 39 39 39 41 42 41 40 39 37 36 37 34 34 36 35 35 34 32 31 29 28 27 26 25 24 23
16 15 13 13 13 13 15 16 19 21 24 27 31 33 35 36 38 40 40 41 42 42 43 42 41 40 39 38 38 36 37 37 37 36 35 34 32 31 30 28 27 26 25
18 17 15 14 14 15 16 18 19 20 23 25 28 31 33 36 38 40 41 42 43 43 43 43 43 42 41 40 40 39 39 39 39 39 38 37 35 34 33 31 30 29 28
20 19 17 16 16 15 16 17 19 21 22 24 26 29 31 34 36 38 40 41 43 44 43 43 43 43 43 43 41 40 40 40 40 40 39 38 37 36 35 33 32 31 30
22 21 19 18 18 17 17 17 19 20 22 24 25 27 29 32 34 36 39 40 42 43 43 43 44 44 44 43 42 42 41 41 41 40 39 39 39 38 37 35 34 33 32
24 23 21 20 19 19 19 19 20 21 22 23 25 26 27 30 32 35 37 39 41 42 42 42 44 45 45 44 43 43 42 42 41 40 40 40 40 39 38 37 36 34 33
25 24 23 21 21 20 20 20 20 20 21 22 23 25 26 28 30 32 35 37 39 41 42 42 43 45 45 45 44 43 43 42 43 42 41 40 40 39 39 39 37 36 35
25 25 25 24 23 22 21 20 20 19 19 19 21 22 24 26 28 30 32 35 37 39 41 41 42 43 44 44 45 44 44 43 42 42 41 40 39 39 39 39 38 37 36
26 26 26 26 25 25 24 22 21 19 17 17 18 20 22 23 25 27 29 32 34 37 39 40 41 43 44 44 44 44 45 44 44 42 41 41 41 40 40 39 39 38 37
26 26 27 27 27 27 26 24 22 20 17 16 16 17 19 20 22 24 26 29 32 34 35 37 39 40 41 42 43 44 44 44 44 43 43 41 42 42 40 39 39 38 38
26 26 26 27 28 28 27 25 23 21 19 17 15 14 15 17 19 20 22 25 27 30 32 34 36 37 38 39 41 43 43 43 42 42 43 43 42 42 41 41 41 41 40
25 26 26 26 27 27 27 26 25 23 21 19 16 14 12 13 14 16 18 20 23 25 27 30 33 35 36 37 38 40 42 43 42 42 42 42 42 42 42 42 40 40 41
25 25 26 26 26 26 26 26 25 24 22 20 17 14 12 11 11 12 14 16 19 22 24 25 28 32 35 36 37 38 40 41 41 40 40 41 42 42 41 41 40 39 40
25 25 25 26 26 26 25 25 25 23 22 20 18 15 13 11 9 9 10 13 15 18 20 22 24 28 32 34 36 37 38 39 40 40 40 40 40 40 40 39 38 38 38
Wind_Direction
261 260 258 256 251 246 243 240 236 235 232 231 229 228 228 227 224 219 220 218 213 210 205 201 198 194 191 190 189 187 184 182 181 179 179 179 177 176 178 183 188 194 197
258 259 258 258 256 251 249 246 241 239 235 232 231 229 228 226 224 222 222 221 216 213 210 208 203 201 199 199 195 193 189 185 185 185 186 186 184 185 185 189 195 201 209
256 257 257 257 256 254 251 249 247 242 237 233 231 228 227 227 225 224 224 224 220 218 216 214 210 207 206 204 202 199 196 192 190 191 191 192 193 196 199 202 206 212 220
257 256 256 255 255 254 252 249 249 245 240 238 236 233 231 230 228 226 225 225 224 222 221 220 218 214 213 210 207 205 203 201 200 199 201 203 205 207 211 215 221 230 239
259 257 257 256 253 252 251 249 249 246 244 243 242 239 236 234 231 231 230 227 226 226 224 224 223 221 220 218 216 213 211 210 209 208 209 212 215 219 224 229 234 241 248
262 260 257 256 256 253 250 248 248 247 246 244 243 242 240 237 235 234 233 229 227 227 227 227 226 225 224 223 223 221 219 218 217 217 217 219 222 225 231 237 243 248 253
268 264 260 258 258 256 252 250 248 248 247 245 243 242 243 241 239 236 234 232 229 228 229 229 229 228 228 227 226 226 226 225 224 223 224 225 227 231 236 241 248 252 258
275 269 265 263 260 258 255 251 249 247 246 247 246 244 242 242 241 239 237 234 231 229 230 230 231 231 231 230 229 230 230 230 230 229 230 231 233 236 239 244 249 254 259
285 278 273 268 264 260 257 253 250 247 245 246 246 245 244 243 242 241 240 238 236 234 233 233 232 232 232 233 233 232 233 233 234 234 234 235 236 238 242 246 250 255 259
296 287 280 274 269 264 259 256 252 249 246 245 245 245 246 245 243 241 241 241 240 238 236 236 236 234 233 234 235 235 235 236 237 238 238 238 238 240 243 247 252 257 261
311 299 291 283 276 269 262 258 254 251 248 246 245 245 245 244 244 242 241 241 241 240 240 239 237 236 236 235 234 237 238 238 239 240 240 241 241 242 246 249 254 258 262
328 314 303 294 285 276 268 262 257 252 249 247 246 245 244 244 244 243 241 241 241 240 241 240 238 239 238 235 234 236 239 239 240 241 243 243 243 244 247 250 254 258 261
346 332 319 308 296 286 277 269 263 258 253 250 248 246 245 244 243 243 240 240 241 240 241 241 240 240 239 237 234 234 238 239 240 242 243 244 245 246 248 251 253 256 259
355 347 335 322 310 297 287 278 270 264 259 255 251 248 246 245 243 243 241 240 239 240 240 241 240 239 240 239 236 237 239 239 241 242 243 244 245 246 248 250 252 254 257
1 354 345 334 321 307 296 288 280 272 266 261 256 252 248 246 244 243 242 241 239 239 239 239 240 239 238 239 238 239 240 240 241 242 243 244 245 246 247 249 250 252 255
2 357 350 341 331 318 305 295 286 280 272 266 260 255 252 248 246 244 242 241 240 239 239 238 238 239 238 238 239 239 239 240 242 241 242 243 244 245 246 247 249 251 254
2 358 353 346 338 328 315 303 293 285 278 271 265 259 255 252 248 245 243 242 240 239 239 238 237 237 238 238 239 238 238 240 242 243 244 243 244 244 245 247 249 251 254
3 360 355 349 343 334 325 314 302 292 284 277 268 261 256 253 250 247 244 242 241 240 239 238 237 237 238 238 238 237 238 239 241 243 243 244 243 243 244 246 248 251 253
2 1 358 353 347 340 332 322 312 302 291 282 274 265 259 255 252 249 246 243 241 240 239 238 238 237 238 238 238 238 238 240 241 241 242 243 243 242 243 245 246 250 252
1 1 360 357 353 348 342 333 322 312 301 289 279 271 263 258 254 250 247 243 242 240 238 238 238 237 238 239 239 239 240 241 240 240 241 241 241 242 244 245 245 249 251
359 360 359 357 356 353 350 344 337 327 314 301 288 277 268 262 257 253 250 246 243 240 239 238 238 238 238 239 240 240 241 241 240 241 242 242 242 243 244 245 246 248 251
359 359 359 358 357 356 354 351 348 342 332 319 303 287 278 270 263 258 252 247 244 241 240 238 238 239 239 240 240 241 241 241 241 242 242 243 243 243 244 245 244 247 250
356 357 358 359 359 359 359 357 355 351 345 335 321 304 289 279 270 262 256 249 244 242 240 238 237 238 239 239 239 239 240 240 241 242 242 244 243 243 244 243 244 246 249
353 355 356 357 359 0 1 1 360 358 354 349 339 326 309 292 279 268 259 250 245 242 240 238 237 236 236 237 238 237 238 240 240 241 243 244 242 243 245 245 245 246 249
350 352 354 355 357 359 1 2 1 0 0 358 353 346 332 314 295 278 262 253 248 244 241 240 239 238 236 236 237 238 237 237 237 239 240 242 243 243 244 245 245 246 249
346 348 350 352 355 357 359 0 2 2 2 3 2 358 351 339 320 298 274 260 253 247 245 243 240 238 236 235 236 237 237 237 237 239 241 242 242 242 242 244 247 247 246
Height
5831 5834 5836 5839 5841 5844 5847 5850 5853 5856 5859 5861 5864 5866 5869 5871 5874 5876 5877 5879 5880 5882 5883 5885 5886 5888 5889 5891 5893 5894 5896 5897 5899 5900 5902 5903 5905 5906 5907 5908 5909 5910 5911
5823 5826 5829 5832 5835 5838 5841 5844 5847 5850 5853 5856 5859 5861 5864 5867 5870 5873 5875 5877 5879 5880 5882 5883 5885 5887 5889 5890 5892 5894 5895 5897 5898 5900 5901 5903 5904 5905 5907 5908 5909 5909 5910
5816 5819 5821 5824 5827 5831 5834 5837 5841 5843 5846 5850 5853 5856 5859 5862 5866 5869 5872 5874 5876 5878 5880 5882 5884 5885 5887 5889 5891 5893 5894 5896 5898 5899 5901 5902 5904 5905 5906 5907 5908 5909 5910
5809 5811 5814 5817 5820 5823 5827 5830 5833 5837 5840 5844 5847 5850 5854 5858 5861 5864 5868 5870 5873 5875 5877 5880 5882 5884 5886 5888 5889 5891 5893 5895 5896 5898 5900 5901 5903 5904 5905 5906 5907 5908 5909
5802 5804 5807 5810 5812 5816 5819 5823 5827 5830 5834 5837 5841 5844 5848 5852 5855 5859 5863 5866 5869 5871 5874 5876 5879 5881 5883 5886 5888 5890 5892 5893 5895 5897 5898 5900 5901 5903 5904 5905 5906 5907 5908
5796 5798 5800 5802 5805 5808 5811 5815 5819 5823 5827 5830 5834 5838 5841 5845 5849 5853 5857 5860 5864 5867 5870 5873 5875 5878 5881 5883 5885 5888 5890 5891 5893 5895 5896 5898 5899 5901 5902 5903 5904 5905 5906
5791 5793 5794 5796 5798 5801 5804 5807 5811 5815 5819 5822 5827 5831 5834 5838 5842 5846 5850 5854 5858 5862 5865 5868 5871 5874 5877 5880 5882 5885 5887 5889 5891 5892 5894 5896 5897 5899 5900 5901 5902 5903 5904
5787 5788 5789 5790 5792 5794 5797 5800 5803 5807 5811 5815 5819 5823 5827 5832 5835 5839 5843 5847 5851 5855 5859 5863 5866 5869 5873 5876 5879 5881 5883 5886 5888 5890 5891 5893 5895 5896 5897 5899 5900 5901 5901
5784 5784 5785 5785 5786 5788 5790 5793 5796 5799 5803 5807 5811 5815 5820 5824 5827 5831 5836 5840 5844 5848 5853 5857 5860 5863 5867 5871 5874 5877 5879 5882 5884 5886 5888 5890 5891 5893 5894 5896 5897 5898 5898
5781 5780 5780 5781 5781 5782 5784 5786 5789 5792 5795 5799 5803 5807 5811 5816 5820 5824 5828 5832 5836 5841 5845 5849 5853 5857 5861 5865 5868 5871 5874 5877 5879 5882 5884 5886 5887 5889 5891 5892 5893 5894 5895
5778 5777 5777 5776 5776 5777 5778 5780 5782 5784 5788 5791 5794 5798 5803 5807 5811 5816 5820 5824 5828 5833 5837 5842 5845 5849 5853 5857 5862 5865 5868 5871 5874 5877 5879 5881 5883 5885 5886 5888 5889 5890 5891
5776 5774 5773 5773 5772 5772 5773 5774 5775 5777 5780 5783 5786 5790 5794 5798 5802 5806 5811 5815 5819 5824 5828 5833 5838 5841 5845 5849 5854 5858 5861 5864 5868 5871 5874 5876 5878 5880 5882 5883 5884 5886 5887
5774 5772 5771 5769 5768 5768 5768 5769 5769 5770 5772 5775 5778 5781 5784 5789 5792 5796 5801 5806 5810 5814 5819 5824 5829 5833 5837 5841 5846 5850 5853 5856 5860 5864 5867 5870 5872 5874 5876 5878 5879 5880 5882
5773 5771 5768 5767 5765 5764 5764 5763 5763 5764 5765 5767 5769 5772 5775 5778 5782 5787 5791 5795 5800 5804 5809 5815 5819 5824 5828 5832 5837 5841 5845 5848 5852 5856 5860 5863 5865 5868 5870 5872 5873 5875 5876
5773 5770 5767 5765 5763 5761 5759 5758 5758 5758 5758 5759 5760 5762 5765 5768 5772 5776 5780 5785 5790 5795 5800 5805 5810 5814 5819 5823 5828 5832 5836 5840 5844 5848 5851 5855 5858 5861 5863 5865 5867 5869 5870
5772 5769 5765 5762 5760 5757 5755 5754 5752 5751 5751 5751 5752 5754 5756 5758 5761 5765 5769 5774 5778 5784 5789 5795 5800 5804 5809 5814 5818 5823 5827 5831 5835 5838 5842 5846 5850 5853 5856 5858 5860 5862 5863
5772 5768 5764 5760 5757 5754 5751 5749 5747 5745 5744 5744 5744 5745 5747 5749 5752 5755 5759 5763 5768 5773 5779 5784 5789 5794 5798 5804 5809 5813 5818 5822 5826 5829 5833 5837 5841 5844 5847 5850 5852 5855 5856
5771 5767 5762 5758 5754 5751 5747 5744 5741 5739 5737 5736 5736 5737 5738 5740 5742 5745 5749 5753 5757 5762 5767 5773 5778 5783 5788 5793 5798 5803 5808 5812 5817 5820 5824 5828 5832 5835 5839 5842 5845 5847 5849
5771 5766 5761 5756 5752 5748 5743 5740 5736 5733 5731 5729 5728 5729 5730 5731 5733 5736 5739 5743 5747 5751 5756 5762 5767 5772 5777 5783 5788 5793 5798 5803 5807 5811 5815 5819 5822 5826 5830 5833 5836 5839 5841
5770 5765 5760 5755 5750 5745 5740 5735 5731 5728 5725 5723 5722 5721 5722 5723 5725 5727 5730 5733 5737 5741 5746 5751 5756 5761 5766 5771 5777 5783 5788 5793 5797 5801 5805 5809 5813 5817 5821 5824 5828 5831 5833
5769 5764 5759 5754 5748 5743 5737 5732 5727 5723 5719 5717 5716 5715 5715 5716 5717 5718 5721 5724 5727 5731 5735 5740 5746 5751 5756 5761 5767 5772 5777 5782 5786 5791 5796 5800 5804 5808 5811 5815 5818 5822 5825
5769 5763 5758 5753 5747 5741 5735 5730 5724 5720 5716 5712 5710 5709 5709 5709 5710 5711 5713 5715 5718 5722 5726 5731 5736 5741 5746 5751 5756 5761 5767 5771 5777 5782 5786 5790 5794 5798 5802 5806 5809 5812 5815
5768 5763 5757 5752 5746 5740 5734 5728 5723 5718 5714 5710 5707 5704 5703 5703 5703 5704 5705 5707 5710 5713 5717 5722 5727 5731 5736 5742 5746 5751 5755 5760 5766 5771 5775 5780 5784 5788 5792 5796 5799 5803 5806
5767 5762 5757 5752 5746 5740 5734 5728 5723 5718 5713 5708 5704 5702 5700 5699 5698 5698 5699 5701 5703 5706 5710 5714 5718 5722 5727 5731 5736 5741 5746 5751 5755 5760 5765 5770 5774 5778 5782 5786 5789 5793 5796
5766 5761 5756 5751 5746 5740 5735 5729 5724 5718 5713 5708 5704 5700 5698 5696 5695 5694 5695 5697 5698 5701 5703 5707 5710 5714 5718 5722 5726 5731 5735 5740 5745 5750 5755 5760 5764 5768 5772 5776 5779 5783 5786
5765 5760 5755 5750 5745 5740 5735 5730 5725 5719 5714 5709 5705 5701 5698 5695 5693 5692 5692 5693 5694 5696 5698 5701 5704 5707 5710 5714 5718 5722 5726 5731 5735 5740 5745 5750 5754 5758 5762 5766 5770 5774 5776